Home > Weather > Eindhoven > Past weeks

Flag for Netherlands Past Weather in Eindhoven, Netherlands — Yesterday and Last 2 Weeks

Now
66 °F

Broken clouds.


Feels Like: 66 °F
Forecast: 59 / 67 °F
Wind: 16 mph from Southwest

Location: Eindhoven Airport

Current Time: Jun 29, 2016 at 1:00:11 PM

Latest Report: Jun 29, 2016 at 12:25 PM


Visibility: N/A

Pressure: 29.89 "Hg

Humidity: 68%

Dew Point: 55 °F

Location of EindhovenLocation

Past Weather in Eindhoven — Graph

°F

Eindhoven Temperature Yesterday

Maximum temperature yesterday: 73 °F (at 3:55 PM)
Minimum temperature yesterday: 55 °F (at 12:04 AM)
Average temperature yesterday: 63 °F

High & Low Weather Summary for the Past Weeks

 TemperatureHumidityPressure
High88 °F (Jun 23, 4:25 PM)100% (Jun 15, 1:55 AM)30.27 "Hg (Jun 15, 1:55 AM)
Low48 °F (Jun 16, 4:55 AM)50% (Jun 16, 12:55 PM)29.45 "Hg (Jun 14, 4:25 PM)
Average62 °F83%29.94 "Hg
* Reported Jun 14 12:25 PM — Jun 29 12:03 PM, Eindhoven, Weather by CustomWeather, © 2016

Note: Actual official high and low records may vary slightly from our data, if they occured in-between our weather recording intervals... More about our weather records

Advertising

Eindhoven Weather History for the Previous 24 Hours

Scroll right to see more
 ConditionsComfort  
Time TempWeatherWind HumidityBarometerVisibility
12:03 PM
Wed, Jun 29
64 °FBroken clouds.17 mph68%29.89 "HgN/A
11:25 AM63 °FBroken clouds.17 mph73%29.89 "HgN/A
10:55 AM61 °FBroken clouds.17 mph77%29.89 "HgN/A
10:25 AM61 °FCloudy.16 mph77%29.86 "HgN/A
9:57 AM61 °FBroken clouds.17 mph77%29.86 "HgN/A
9:25 AM61 °FCloudy.17 mph77%29.86 "HgN/A
8:56 AM59 °FBroken clouds.16 mph82%29.86 "HgN/A
8:25 AM59 °FBroken clouds.15 mph88%29.86 "HgN/A
8:03 AM59 °FMostly cloudy.16 mph88%29.83 "HgN/A
8:02 AM57 °FCloudy.16 mph88%29.83 "HgN/A
7:55 AM57 °FMostly cloudy.16 mph88%29.83 "HgN/A
7:25 AM57 °FMore clouds than sun.14 mph88%29.83 "HgN/A
7:03 AM57 °FCloudy.15 mph88%29.83 "HgN/A
6:55 AM57 °FMore clouds than sun.15 mph88%29.83 "HgN/A
6:25 AM57 °FMostly cloudy.13 mph88%29.83 "HgN/A
5:55 AM57 °FPassing clouds.13 mph88%29.83 "HgN/A
5:25 AM57 °FPassing clouds.12 mph88%29.83 "HgN/A
4:59 AM57 °FPartly cloudy.9 mph94%29.83 "HgN/A
4:25 AM57 °FPassing clouds.8 mph94%29.83 "HgN/A
4:04 AM57 °FPartly cloudy.7 mph94%29.83 "HgN/A
3:25 AM57 °FFog.6 mph100%29.83 "Hg4 mi
2:55 AM57 °FSprinkles. Passing clouds.3 mph100%29.83 "Hg3 mi
2:25 AM57 °FLots of rain. Mostly cloudy.2 mph100%29.83 "Hg1 mi
1:55 AM57 °FPassing clouds.3 mph100%29.80 "Hg4 mi
1:25 AM57 °FPartly cloudy.5 mph100%29.83 "HgN/A
12:55 AM59 °FRain showers. Partly cloudy.7 mph94%29.83 "Hg5 mi
12:25 AM61 °FHeavy rain. Partly cloudy.6 mph88%29.83 "Hg3 mi
11:55 PM
Tue, Jun 28
63 °FLight rain. Partly cloudy.6 mph77%29.83 "HgN/A
11:25 PM64 °FOvercast.6 mph73%29.83 "HgN/A
10:55 PM64 °FMostly cloudy.6 mph68%29.83 "HgN/A
10:25 PM64 °FOvercast.5 mph68%29.86 "HgN/A
9:55 PM64 °FOvercast.6 mph68%29.86 "HgN/A
9:25 PM66 °FOvercast.8 mph64%29.86 "HgN/A
8:55 PM66 °FOvercast.7 mph64%29.86 "HgN/A
8:25 PM68 °FOvercast.8 mph56%29.89 "HgN/A
7:55 PM68 °FOvercast.10 mph56%29.89 "HgN/A
7:25 PM70 °FOvercast.9 mph57%29.89 "HgN/A
6:55 PM70 °FOvercast.12 mph53%29.92 "HgN/A
6:25 PM70 °FOvercast.10 mph53%29.92 "HgN/A
5:55 PM70 °FOvercast.10 mph53%29.92 "HgN/A
5:25 PM73 °FOvercast.9 mph50%29.92 "HgN/A
4:55 PM72 °FOvercast.10 mph53%29.95 "HgN/A
4:25 PM72 °FOvercast.10 mph53%29.95 "HgN/A
3:55 PM73 °FOvercast.12 mph53%29.95 "HgN/A
3:25 PM72 °FBroken clouds.7 mph53%29.98 "HgN/A
2:55 PM72 °FPartly sunny.8 mph57%29.98 "HgN/A
2:25 PM70 °FOvercast.8 mph57%29.98 "HgN/A
1:55 PM70 °FScattered clouds.8 mph57%30.01 "HgN/A
1:25 PM70 °FScattered clouds.7 mph60%30.01 "HgN/A
Weather by CustomWeather, © 2016

See weather overviewHow to use our weather pages